Inquirer Daily News

Weather

Get conditions and forecasts for any City, State, ZIP code or Country:  
Trenton, NJ
on Monday, January 7, 2013

Monday
Previous Day Next Day
Daily Summary
 ActualAverageRecord
Temperature
Mean Temperature °F 31°F  
Max Temperature 46°F 39°F 66°F (2012)
Min Temperature 30°F 23°F 2°F (2014)
Degree Days
Heating Degree Days 27 34  
Month to date heating degree days 237  
Since 1 July heating degree days 2132  
Cooling Degree Days 0 0  
Month to date cooling degree days 0  
Year to date cooling degree days 0  
Moisture
Dew Point 25°F   
Average Humidity 60    
Maximum Humidity 75    
Minimum Humidity 40    
Precipitation
Precipitation 0.00 in 0.12 in 1.60 in (1875)
Month to date precipitation 0.81  
Year to date precipitation 0.81  
Wind
Wind Speed 4 mph   
Max Wind Speed 14 mph   
Max Gust Speed 18 mph   
Visibility 10 miles   
Events     

Key: T is trace of precipitation, MM is missing value
Source: NWS Daily Summary
Time(EST)TemperatureDew PointHumidity Pressure Visibility Wind DirectionWind SpeedGust SpeedPrecipitationEvents Conditions
12:53 AM 39.0°F 26.1°F 60% 30.07 in 10.0 miles WNW 3.5 mph - N/A   Clear
1:53 AM 39.0°F 26.1°F 60% 30.09 in 10.0 miles NW 5.8 mph - N/A   Clear
2:53 AM 37.9°F 26.1°F 62% 30.11 in 10.0 miles WNW 4.6 mph - N/A   Clear
3:53 AM 37.0°F 26.1°F 65% 30.12 in 10.0 miles NW 5.8 mph - N/A   Clear
4:53 AM 37.0°F 26.1°F 65% 30.14 in 10.0 miles NW 3.5 mph - N/A   Mostly Cloudy
5:53 AM 36.0°F 26.1°F 67% 30.18 in 10.0 miles Calm Calm - N/A   Scattered Clouds
6:53 AM 34.0°F 26.1°F 73% 30.22 in 10.0 miles Calm Calm - N/A   Mostly Cloudy
7:53 AM 37.0°F 27.0°F 67% 30.25 in 10.0 miles Calm Calm - N/A   Mostly Cloudy
8:53 AM 39.0°F 28.9°F 67% 30.28 in 10.0 miles NW 3.5 mph - N/A   Overcast
9:53 AM 42.1°F 28.9°F 60% 30.30 in 10.0 miles NW 9.2 mph - N/A   Clear
10:53 AM 43.0°F 27.0°F 53% 30.32 in 10.0 miles North 10.4 mph - N/A   Overcast
11:53 AM 45.0°F 27.0°F 49% 30.32 in 10.0 miles NNW 10.4 mph 18.4 mph N/A   Partly Cloudy
12:53 PM 45.0°F 24.1°F 44% 30.33 in 10.0 miles North 12.7 mph 17.3 mph N/A   Scattered Clouds
1:53 PM 45.0°F 23.0°F 42% 30.32 in 10.0 miles NNW 13.8 mph 17.3 mph N/A   Clear
2:53 PM 46.0°F 23.0°F 40% 30.34 in 10.0 miles Variable 6.9 mph - N/A   Clear
3:53 PM 45.0°F 23.0°F 42% 30.36 in 10.0 miles NW 4.6 mph - N/A   Clear
4:53 PM 42.1°F 23.0°F 47% 30.38 in 10.0 miles Calm Calm - N/A   Clear
6:53 PM 36.0°F 23.0°F 59% 30.38 in 10.0 miles Calm Calm - N/A   Clear
7:53 PM 37.9°F 25.0°F 60% 30.39 in 10.0 miles WNW 3.5 mph - N/A   Clear
8:53 PM 34.0°F 24.1°F 67% 30.38 in 10.0 miles WNW 3.5 mph - N/A   Clear
9:53 PM 30.9°F 23.0°F 72% 30.38 in 10.0 miles Calm Calm - N/A   Clear
10:53 PM 30.0°F 23.0°F 75% 30.39 in 9.0 miles Calm Calm - N/A   Clear
11:53 PM 30.0°F 23.0°F 75% 30.38 in 8.0 miles Calm Calm - N/A   Clear
Astronomy
Sunrise:07:21 AM (EST) Moon Rise:02:42 AM (EST)1/7
Sunset:04:49 PM (EST) Moon Set:12:58 PM (EST)1/7
Moon Phase
Jan. 07 Jan. 11 Jan. 18 Jan. 26 Feb. 03

Copyright © 2014 The Weather Underground, Inc.